Flag for France Weather past 2 weeks in Tours, France

Now
79 °F

Sunny.


Feels Like: 80 °F
Forecast: 62 / 77 °F
Wind: 5 mph from Northwest

Location: Tours Airport

Current Time: Jul 4, 2015 at 10:45:56 PM

Latest Report: Jul 4, 2015 at 10:00 PM


Visibility: 10 mi

Pressure: 30.12 "Hg

Humidity: 51%

Dew point: 59 °F

Location of ToursLocation

Historic Weather in Tours — Graph

°F

Tours temperature yesterday

Maximum temperature yesterday: 95 °F (at 5:30 PM)
Minimum temperature yesterday: 64 °F (at 6:30 AM)
Average temperature yesterday: 80 °F

Past Weeks' High & Low Weather Summary

 TemperatureHumidityPressure
High97 °F (Jun 30, 6:00 PM)100% (Jun 23, 4:00 AM)30.21 "Hg (Jun 23, 4:00 AM)
Low48 °F (Jun 23, 5:30 AM)24% (Jun 26, 6:00 PM)29.89 "Hg (Jun 22, 3:30 PM)
Average72 °F59%30.10 "Hg
* Reported Jun 19 10:00 PM — Jul 4 10:00 PM, Tours, Weather by CustomWeather, © 2015

Note: Actual official high and low records may vary slightly from our data, if they occured in-between our weather recording intervals... More about our weather records

Advertising

Tours weather history for previous 24 hours

 ConditionsComfort  
Time TempWeatherWind HumidityBarometerVisibility
10:00 PM
Sat, Jul 4
79 °FSunny.5 mph51%30.12 "Hg10 mi
9:30 PM81 °FSunny.3 mph48%30.12 "Hg10 mi
9:00 PM82 °FSunny.5 mph45%30.12 "Hg10 mi
8:30 PM84 °FPassing clouds.6 mph43%30.12 "HgN/A
8:00 PM86 °FPassing clouds.5 mph40%30.12 "HgN/A
7:30 PM86 °FPassing clouds.7 mph38%30.12 "HgN/A
7:00 PM86 °FPassing clouds.6 mph40%30.12 "HgN/A
6:30 PM86 °FPassing clouds.8 mph43%30.12 "HgN/A
6:00 PM86 °FPassing clouds.8 mph40%30.12 "HgN/A
5:30 PM88 °FPassing clouds.3 mph35%30.12 "HgN/A
5:00 PM88 °FPassing clouds.8 mph35%30.15 "HgN/A
4:30 PM88 °FPassing clouds.5 mph35%30.15 "HgN/A
4:00 PM86 °FPassing clouds.7 mph35%30.15 "HgN/A
3:30 PM86 °FSunny.6 mph38%30.15 "Hg10 mi
3:00 PM86 °FPassing clouds.8 mph38%30.15 "HgN/A
2:30 PM86 °FPassing clouds.7 mph38%30.15 "HgN/A
2:00 PM84 °FPassing clouds.8 mph40%30.18 "HgN/A
1:30 PM82 °FPassing clouds.9 mph42%30.18 "HgN/A
1:00 PM82 °FScattered clouds.9 mph48%30.18 "HgN/A
12:30 PM82 °FPassing clouds.6 mph48%30.18 "HgN/A
12:00 PM79 °FWarm.9 mph51%30.15 "HgN/A
11:30 AM79 °FPassing clouds.10 mph54%30.15 "HgN/A
11:00 AM79 °FPassing clouds.9 mph51%30.15 "HgN/A
10:30 AM77 °FWarm.12 mph51%30.15 "HgN/A
10:00 AM77 °FWarm.10 mph54%30.15 "HgN/A
9:30 AM75 °FMild.10 mph61%30.12 "HgN/A
9:00 AM73 °FSunny.13 mph69%30.12 "Hg10 mi
8:30 AM73 °FSunny.10 mph74%30.12 "Hg10 mi
8:00 AM72 °FPassing clouds.9 mph78%30.09 "HgN/A
7:30 AM72 °FPassing clouds.5 mph78%30.09 "HgN/A
7:00 AM70 °FClear.2 mph78%30.07 "Hg10 mi
6:30 AM70 °FClear.5 mph78%30.07 "Hg10 mi
6:00 AM68 °FClear.5 mph83%30.07 "Hg10 mi
5:30 AM70 °FClear.5 mph78%30.07 "Hg10 mi
5:00 AM70 °FClear.1 mph78%30.04 "Hg10 mi
4:30 AM70 °FClear.No wind78%30.04 "Hg10 mi
4:00 AM72 °FClear.1 mph73%30.04 "Hg10 mi
3:30 AM72 °FClear.1 mph73%30.04 "Hg10 mi
3:00 AM73 °FClear.3 mph69%30.04 "Hg10 mi
2:30 AM72 °FClear.2 mph73%30.04 "Hg10 mi
2:00 AM75 °FClear.3 mph69%30.04 "Hg10 mi
1:30 AM77 °FClear.2 mph61%30.04 "Hg10 mi
1:00 AM77 °FClear.3 mph57%30.04 "Hg10 mi
12:30 AM79 °FClear.3 mph54%30.04 "Hg10 mi
12:00 AM81 °FClear.3 mph51%30.04 "Hg10 mi
11:30 PM
Fri, Jul 3
82 °FClear.2 mph48%30.04 "Hg10 mi
11:00 PM82 °FClear.3 mph48%30.01 "Hg10 mi
10:30 PM86 °FPassing clouds.6 mph43%30.01 "HgN/A
10:00 PM88 °FSunny.6 mph40%30.01 "Hg10 mi
Weather by CustomWeather, © 2015

See weather overviewHow to use our weather pages